Weather observations for the past three days for
Shreveport, Shreveport Downtown Airport
Imperial (Metric)
Date Time (cdt) Wind (mph) Vis. (mi.) Weather Sky Cond. Temperature (ºF) Relative Humidity Wind Chill (°F) Heat Index (°F) Pressure Precipitation (in)
Air Dwpt 6 hour altimeter (in) sea level (mb) 1 hr 3 hr 6 hr
Max. Min.
18 08:53 N 3 10.00 Overcast OVC060 77 72 85% 78 30.07 1017.9
18 07:53 NE 3 10.00 Mostly Cloudy BKN070 BKN080 77 72 85% 78 30.05 1017.4
18 06:53 Calm 10.00 Fair CLR 75.9 71.1 77 75 85% 76 30.03 1016.8
18 04:53 Calm 10.00 Partly Cloudy SCT110 75.9 71.1 85% 76 30 1015.7
18 03:53 W 6 10.00 Mostly Cloudy BKN065 75.9 71.1 85% 76 30.02 1016.3
18 02:53 Calm 10.00 Partly Cloudy SCT120 75.9 70 82% 77 30.02 1016.1
18 01:53 Calm 10.00 A Few Clouds FEW110 75 70 84% 75 30.02 1016.3
18 00:53 SE 3 10.00 Fair CLR 75 71.1 78.1 75 88% 75 30.02 1016.3 0.01
17 23:53 NW 5 10.00 Fair CLR 75.9 71.1 85% 76 30.03 1016.5
17 22:53 E 7 10.00 Fair CLR 75.9 71.1 85% 76 30 1015.5
17 21:53 NW 3 10.00 Fair CLR 75.9 71.1 85% 76 30.03 1016.4 0.01
17 20:53 Vrbl 5 10.00 Fair CLR 77 71.1 82% 79 30.01 1015.8
17 19:53 NW 7 10.00 Fair CLR 77 72 85% 78 29.98 1015.0 0.01
17 18:53 Vrbl 3 10.00 Mostly Cloudy SCT034 SCT046 BKN120 77 72 96.1 77 85% 78 30 1015.6 0.1 0.1
17 17:53 NW 26 G 40 10.00 Partly Cloudy and Windy SCT049 91.9 72 52% 100 29.97 1014.5
17 16:53 SW 12 10.00 A Few Clouds FEW095 96.1 73 48% 106 29.94 1013.4
17 15:53 Vrbl 6 10.00 Partly Cloudy SCT047 SCT060 95 72 47% 103 29.92 1012.8
17 14:53 W 7 G 16 10.00 Partly Cloudy SCT044 SCT055 93.9 73.9 52% 104 29.94 1013.4
17 13:53 W 8 10.00 Partly Cloudy SCT042 93.9 73.9 52% 104 29.97 1014.4
17 12:53 Vrbl 3 10.00 Fair CLR 93 73.9 93 79 54% 103 30 1015.5
17 11:53 W 8 10.00 Fair CLR 91 73 56% 100 30.03 1016.7
17 10:53 SW 7 10.00 Fair CLR 88 73.9 63% 97 30.04 1016.8
17 09:53 W 6 10.00 Fair CLR 86 73.9 67% 94 30.03 1016.7
17 08:53 SW 12 10.00 Fair CLR 82.9 75 77% 90 30.01 1016.0
17 07:53 SW 8 10.00 Fair CLR 81 75 82% 87 30.01 1015.9
17 06:53 S 9 10.00 Fair CLR 79 73.9 84.9 79 85% 83 29.98 1015.0
17 05:53 S 8 10.00 Fair CLR 79 73.9 85% 83 29.97 1014.7
17 04:53 SW 9 10.00 Fair CLR 79 73.9 85% 83 29.98 1014.9
17 03:53 SW 8 10.00 Fair CLR 80.1 73 79% 84 29.97 1014.6
17 02:53 SW 9 10.00 Fair CLR 81 73 77% 86 29.96 1014.2
17 01:53 S 12 10.00 Fair CLR 84 72 67% 90 29.94 1013.4
17 00:53 S 8 10.00 Fair CLR 84.9 72 93 81 65% 91 29.93 1013.2
16 23:53 Calm 10.00 Fair CLR 82 72 72% 87 29.94 1013.6
16 22:53 S 3 10.00 Fair CLR 84 72 67% 90 29.94 1013.6
16 21:53 S 7 10.00 Fair CLR 87.1 71.1 59% 93 29.94 1013.5
16 20:53 S 7 10.00 Fair CLR 89.1 70 53% 94 29.92 1013.0
16 19:53 S 7 10.00 Fair CLR 91 69.1 49% 96 29.91 1012.6
16 18:53 S 9 10.00 Fair CLR 93 69.1 95 91.9 46% 98 29.91 1012.6
16 17:53 SW 8 10.00 Fair CLR 93.9 66.9 41% 98 29.92 1012.9
16 16:53 SW 9 10.00 Fair CLR 95 66.9 40% 99 29.93 1013.3
16 15:53 S 12 G 20 10.00 Fair CLR 93.9 69.1 44% 99 29.93 1013.2
16 14:53 SW 10 G 18 10.00 Fair CLR 93.9 68 43% 98 29.95 1013.9
16 13:53 W 8 10.00 Fair CLR 93 69.1 46% 98 29.97 1014.6
16 12:53 W 10 10.00 Fair CLR 91.9 69.1 91.9 80.1 47% 97 29.99 1015.2
16 11:53 W 8 10.00 Fair CLR 91 69.1 49% 96 30 1015.5
16 10:53 SW 8 10.00 Fair CLR 89.1 72 57% 96 30 1015.6
16 09:53 SW 8 10.00 Fair CLR 86 72 63% 92 30 1015.7
16 07:53 S 12 10.00 Fair CLR 81 73.9 79% 86 30 1015.4
16 06:53 S 8 10.00 Fair CLR 80.1 73.9 84.9 79 82% 85 29.98 1015.0
16 05:53 S 8 10.00 Fair CLR 80.1 73.9 82% 85 29.97 1014.5
16 04:53 S 10 10.00 Fair CLR 81 73.9 79% 86 29.96 1014.0
16 03:53 S 9 10.00 Fair CLR 82 73.9 77% 88 29.96 1014.1
16 02:53 S 8 10.00 Fair CLR 82.9 73.9 74% 89 29.96 1014.2
16 01:53 S 10 10.00 Fair CLR 84 73.9 72% 91 29.96 1014.1
16 00:53 SW 12 10.00 Fair CLR 84.9 73 93 84.9 68% 92 29.95 1013.8
15 23:53 S 9 10.00 Fair CLR 86 73 65% 93 29.94 1013.4
15 22:53 S 8 10.00 Fair CLR 87.1 73.9 65% 95 29.94 1013.4
15 21:53 S 9 10.00 Fair CLR 88 73 61% 96 29.93 1013.3
15 20:53 S 6 10.00 Fair CLR 89.1 73 59% 97 29.94 1013.4
15 19:53 S 9 10.00 A Few Clouds FEW047 91 71.1 52% 98 29.94 1013.4
15 18:53 S 12 10.00 A Few Clouds FEW055 93 71.1 95 91.9 49% 100 29.94 1013.6
15 17:53 S 8 10.00 A Few Clouds FEW050 93.9 72 49% 102 29.93 1013.3
15 16:53 SW 12 10.00 Fair CLR 93.9 71.1 48% 101 29.95 1013.9
15 15:53 SW 9 10.00 A Few Clouds FEW050 95 71.1 46% 102 29.96 1014.2
15 14:53 SW 8 10.00 Fair CLR 93.9 71.1 48% 101 30 1015.4
15 13:53 SW 3 10.00 A Few Clouds FEW044 93 73 52% 102 30.02 1016.1
15 12:53 W 8 10.00 Fair CLR 91.9 72 91.9 79 52% 100 30.03 1016.7
15 11:53 W 8 10.00 Fair CLR 90 73.9 59% 99 30.05 1017.3
15 10:53 SW 10 10.00 Fair CLR 89.6 73.4 59% 98 30.07 0.0
15 09:52 SW 8 10.00 Fair CLR 80.6 75.2 84% 86 30.09 0.0
Date Time (cdt) Wind (mph) Vis. (mi.) Weather Sky Cond. Air Dwpt Max. Min. Relative Humidity Wind Chill (°F) Heat Index (°F) altimeter (in) sea level (mb) 1 hr 3 hr 6 hr
6 hour
Temperature (ºF) Pressure Precipitation (in)